Weather History for KSPW - March, 2012

Change the Weather History Date:

Wednesday, March 14, 2012

  Actual Average Record
Temperature  
Mean Temperature 60 °F -  
Max Temperature 73 °F 39 °F 73 °F (2012)
Min Temperature 39 °F 20 °F -18 °F (1975)
Degree Days  
Heating Degree Days 6    
Growing Degree Days 10 (Base 50)    
Moisture  
Dew Point 45 °F    
Average Humidity 64    
Maximum Humidity 86    
Minimum Humidity 35    
Precipitation  
Precipitation 0.00 in - - ()
Sea Level Pressure  
Sea Level Pressure 29.82 in    
Wind  
Wind Speed 9 mph (WNW)    
Max Wind Speed 14 mph    
Max Gust Speed -    
Visibility 10 miles    
Events      
Averages and records for this station are not official NWS values.
T = Trace of Precipitation, MM = Missing Value Source: NWS Daily Summary

Daily Weather History Graph

Daily Weather History Graph

Search for Another Location

Airport or City:

Trip Planner

Search our weather history database for the weather conditions in past years. The results will help you decide how hot, cold, wet, or windy it might be!

Date:

Astronomy

Mar. 14, 2012 Rise Set
Actual Time 7:33 AM CDT 7:26 PM CDT
Civil Twilight 7:05 AM CDT 7:54 PM CDT
Nautical Twilight 6:32 AM CDT 8:28 PM CDT
Astronomical Twilight 5:58 AM CDT 9:01 PM CDT
Moon 2:13 AM CDT (3/14) 11:34 AM CDT (3/14)
Length of Visible Light 12h 49m
Length of Day
11h 52m
Waning Gibbous, 54% of the Moon is Illuminated
Mar 14
Waning Gibbous
Mar 14
Last Quarter
Mar 22
New
Mar 30
First Quarter
Apr 6
Full

Hourly Weather History & Observations

Time (CDT) Temp. Windchill Dew Point Humidity Pressure Visibility Wind Dir Wind Speed Gust Speed Precip Events Conditions
12:53 AM 54.0 °F - 45.0 °F 72% 29.77 in 10.0 mi SSE 8.1 mph - N/A   Clear
1:53 AM 52.0 °F - 45.0 °F 77% 29.75 in 10.0 mi SSE 10.4 mph - N/A   Clear
2:53 AM 51.1 °F - 45.0 °F 80% 29.73 in 10.0 mi SSE 11.5 mph - N/A   Clear
3:53 AM 50.0 °F - 45.0 °F 83% 29.71 in 10.0 mi South 10.4 mph - N/A   Clear
4:53 AM 48.9 °F - 45.0 °F 86% 29.71 in 10.0 mi South 5.8 mph - N/A   Clear
5:53 AM 50.0 °F - 45.0 °F 83% 29.73 in 10.0 mi South 9.2 mph - N/A   Clear
7:53 AM 52.0 °F - 46.9 °F 83% 29.76 in 10.0 mi SW 9.2 mph - N/A   Clear
8:53 AM 54.0 °F - 50.0 °F 86% 29.78 in 10.0 mi SW 8.1 mph - N/A   Clear
9:53 AM 60.1 °F - 52.0 °F 75% 29.79 in 10.0 mi WSW 13.8 mph - N/A   Clear
10:53 AM 64.0 °F - 48.9 °F 58% 29.81 in 10.0 mi West 10.4 mph - N/A   Clear
11:53 AM 66.9 °F - 45.0 °F 45% 29.82 in 10.0 mi NW 8.1 mph - N/A   Clear
12:53 PM 68.0 °F - 45.0 °F 43% 29.82 in 10.0 mi WNW 5.8 mph - N/A   Clear
1:53 PM 70.0 °F - 45.0 °F 41% 29.81 in 10.0 mi WNW 3.5 mph - N/A   Clear
2:53 PM 70.0 °F - 45.0 °F 41% 29.81 in 10.0 mi West 4.6 mph - N/A   Clear
3:53 PM 73.0 °F - 44.1 °F 35% 29.82 in 10.0 mi NNW 6.9 mph - N/A   Clear
4:53 PM 72.0 °F - 43.0 °F 35% 29.83 in 10.0 mi NNW 9.2 mph - N/A   Clear
5:53 PM 70.0 °F - 43.0 °F 38% 29.85 in 10.0 mi North 10.4 mph - N/A   Clear
6:53 PM 64.9 °F - 46.0 °F 50% 29.86 in 10.0 mi NNW 9.2 mph - N/A   Clear
7:53 PM 55.0 °F - 46.0 °F 72% 29.90 in 10.0 mi North 8.1 mph - N/A   Clear
8:53 PM 53.1 °F - 44.1 °F 71% 29.92 in 10.0 mi North 10.4 mph - N/A   Clear
9:53 PM 50.0 °F - 39.9 °F 68% 29.93 in 10.0 mi North 9.2 mph - N/A   Clear
10:53 PM 46.9 °F - 37.9 °F 71% 29.94 in 10.0 mi North 4.6 mph - N/A   Clear
11:53 PM 39.9 °F 36.7 °F 35.1 °F 83% 29.94 in 10.0 mi WNW 4.6 mph - N/A   Clear